This is the latest recevied weather packets stored in our database for station/object KF5JED-13. If no packets are shown the sender has not sent any weather packets the latest 10 day(s).
| Time | Temp. | Humidity | Pressure | Rain* | Wind** | Luminosity | Snow |
|---|---|---|---|---|---|---|---|
| 1778293841 | 21.67° C | 32% | 1012.6 hPa | 0 mm | - | 0 W/m² | - |
| 1778293538 | 21.67° C | 32% | 1012.3 hPa | 0 mm | - | 0 W/m² | - |
| 1778293236 | 21.67° C | 32% | 1012.1 hPa | 0 mm | - | 0 W/m² | - |
| 1778292932 | 21.67° C | 32% | 1012.2 hPa | 0 mm | - | 0 W/m² | - |
| 1778292629 | 21.67° C | 32% | 1012.3 hPa | 0 mm | - | 0 W/m² | - |
| 1778292328 | 21.67° C | 31% | 1012.2 hPa | 0 mm | - | 0 W/m² | - |
| 1778292024 | 22.22° C | 31% | 1012.2 hPa | 0 mm | - | 0 W/m² | - |
| 1778291723 | 22.78° C | 31% | 1012 hPa | 0 mm | - | 0 W/m² | - |
| 1778291420 | 22.78° C | 30% | 1012 hPa | 0 mm | - | 1 W/m² | - |
| 1778291117 | 22.78° C | 30% | 1011.9 hPa | 0 mm | - | 2 W/m² | - |
| 1778290813 | 23.33° C | 29% | 1011.9 hPa | 0 mm | - | 3 W/m² | - |
| 1778290510 | 23.89° C | 28% | 1011.9 hPa | 0 mm | - | 6 W/m² | - |
| 1778290206 | 23.89° C | 29% | 1011.9 hPa | 0 mm | - | 9 W/m² | - |
| 1778289902 | 24.44° C | 28% | 1011.9 hPa | 0 mm | - | 13 W/m² | - |
| 1778289599 | 24.44° C | 27% | 1011.8 hPa | 0 mm | - | 16 W/m² | - |
| 1778289297 | 25° C | 27% | 1011.7 hPa | 0 mm | - | 19 W/m² | - |
| 1778288994 | 25° C | 26% | 1011.7 hPa | 0 mm | - | 23 W/m² | - |
| 1778288692 | 25.56° C | 26% | 1011.7 hPa | 0 mm | - | 32 W/m² | - |
| 1778288388 | 25.56° C | 25% | 1011.6 hPa | 0 mm | - | 38 W/m² | - |
| 1778288086 | 25.56° C | 25% | 1011.6 hPa | 0 mm | - | 45 W/m² | - |
| 1778287780 | 26.11° C | 25% | 1011.5 hPa | 0 mm | - | 54 W/m² | - |
| 1778287477 | 26.11° C | 25% | 1011.7 hPa | 0 mm | - | 63 W/m² | - |
| 1778287175 | 26.11° C | 25% | 1011.3 hPa | 0 mm | - | 75 W/m² | - |
| 1778286873 | 26.11° C | 25% | 1011.3 hPa | 0 mm | - | 87 W/m² | - |
| 1778286570 | 26.11° C | 25% | 1011.5 hPa | 0 mm | - | 98 W/m² | - |
* Rain latest hour (hover to see other rain measurements)
** Current wind speed in m/s (hover to see current wind gust speed)